User: anonymous   Login
Location: Unspecified
(0.0000°N, 0.0000°E)
Time: 00:07:21
(UTC+00:00)
Language:

FLOCK 4H 15 - Orbit

View from above orbital plane
View from above orbital plane
View from above satellite
View from above satellite

Ground track
Ground track

The orbit is defined by the following mean orbital elements,

1 66718U          26145.46004524 +.00000000 +00000-0 +26578-3 0 00005
2 66718  97.4224 219.3371 0006010  97.3320 262.8598 15.19269519    03
Epoch (UTC): 25 May 2026 11:02:27
Eccentricity: 0.0006010
inclination: 97.4224°
perigee height: 504 km
apogee height: 512 km
right ascension of ascending node: 219.3371°
argument of perigee: 97.3320°
revolutions per day: 15.19269519
mean anomaly at epoch: 262.8598°

The dashed part of the orbit path shows where the satellite is in the earth's shadow,  

DLR